Year,Month,Day,Hour,Minute,Value (Times are PST for temperature in C)
2009,06,29,00,00,14.20
2009,06,29,00,01,14.10
2009,06,29,00,02,14.10
2009,06,29,00,03,14.10
2009,06,29,00,04,14.10
2009,06,29,00,05,14.00
2009,06,29,00,06,14.00
2009,06,29,00,07,14.00
2009,06,29,00,08,13.90
2009,06,29,00,09,13.90
2009,06,29,00,10,13.80
2009,06,29,00,11,13.80
2009,06,29,00,12,13.70
2009,06,29,00,13,13.70
2009,06,29,00,14,13.70
2009,06,29,00,15,13.60
2009,06,29,00,16,13.60
2009,06,29,00,17,13.60
2009,06,29,00,18,13.50
2009,06,29,00,19,13.50
2009,06,29,00,20,13.50
2009,06,29,00,21,13.50
2009,06,29,00,22,13.50
2009,06,29,00,23,13.50
2009,06,29,00,24,13.50
2009,06,29,00,25,13.50
2009,06,29,00,26,13.50
2009,06,29,00,27,13.50
2009,06,29,00,28,13.50
2009,06,29,00,29,13.50
2009,06,29,00,30,13.50
2009,06,29,00,31,13.40
2009,06,29,00,32,13.40
2009,06,29,00,33,13.40
2009,06,29,00,34,13.40
2009,06,29,00,35,13.40
2009,06,29,00,36,13.40
2009,06,29,00,37,13.40
2009,06,29,00,38,13.30
2009,06,29,00,39,13.40
2009,06,29,00,40,13.40
2009,06,29,00,41,13.40
2009,06,29,00,42,13.40
2009,06,29,00,43,13.40
2009,06,29,00,44,13.40
2009,06,29,00,45,13.40
2009,06,29,00,46,13.40
2009,06,29,00,47,13.40
2009,06,29,00,48,13.40
2009,06,29,00,49,13.40
2009,06,29,00,50,13.40
2009,06,29,00,51,13.50
2009,06,29,00,52,13.50
2009,06,29,00,53,13.50
2009,06,29,00,54,13.50
2009,06,29,00,55,13.50
2009,06,29,00,56,13.50
2009,06,29,00,57,13.50
2009,06,29,00,58,13.50
2009,06,29,00,59,13.50
2009,06,29,01,00,13.40
2009,06,29,01,01,13.40
2009,06,29,01,02,13.40
2009,06,29,01,03,13.30
2009,06,29,01,04,13.30
2009,06,29,01,05,13.30
2009,06,29,01,06,13.30
2009,06,29,01,07,13.30
2009,06,29,01,08,13.30
2009,06,29,01,09,13.30
2009,06,29,01,10,13.30
2009,06,29,01,11,13.30
2009,06,29,01,12,13.30
2009,06,29,01,13,13.20
2009,06,29,01,14,13.20
2009,06,29,01,15,13.20
2009,06,29,01,16,13.20
2009,06,29,01,17,13.20
2009,06,29,01,18,13.20
2009,06,29,01,19,13.20
2009,06,29,01,20,13.20
2009,06,29,01,21,13.20
2009,06,29,01,22,13.20
2009,06,29,01,23,13.20
2009,06,29,01,24,13.20
2009,06,29,01,25,13.10
2009,06,29,01,26,13.10
2009,06,29,01,27,13.10
2009,06,29,01,28,13.10
2009,06,29,01,29,13.10
2009,06,29,01,30,13.10
2009,06,29,01,31,13.10
2009,06,29,01,32,13.10
2009,06,29,01,33,13.10
2009,06,29,01,34,13.00
2009,06,29,01,35,13.00
2009,06,29,01,36,12.90
2009,06,29,01,37,12.90
2009,06,29,01,38,12.80
2009,06,29,01,39,12.80
2009,06,29,01,40,12.80
2009,06,29,01,41,12.80
2009,06,29,01,42,12.70
2009,06,29,01,43,12.70
2009,06,29,01,44,12.60
2009,06,29,01,45,12.60
2009,06,29,01,46,12.50
2009,06,29,01,47,12.50
2009,06,29,01,48,12.50
2009,06,29,01,49,12.50
2009,06,29,01,50,12.40
2009,06,29,01,51,12.40
2009,06,29,01,52,12.40
2009,06,29,01,53,12.40
2009,06,29,01,54,12.40
2009,06,29,01,55,12.30
2009,06,29,01,56,12.30
2009,06,29,01,57,12.30
2009,06,29,01,58,12.30
2009,06,29,01,59,12.30
2009,06,29,02,00,12.40
2009,06,29,02,01,12.40
2009,06,29,02,02,12.40
2009,06,29,02,03,12.40
2009,06,29,02,04,12.30
2009,06,29,02,05,12.30
2009,06,29,02,06,12.30
2009,06,29,02,07,12.30
2009,06,29,02,08,12.30
2009,06,29,02,09,12.30
2009,06,29,02,10,12.30
2009,06,29,02,11,12.30
2009,06,29,02,12,12.30
2009,06,29,02,13,12.30
2009,06,29,02,14,12.30
2009,06,29,02,15,12.30
2009,06,29,02,16,12.30
2009,06,29,02,17,12.20
2009,06,29,02,18,12.20
2009,06,29,02,19,12.20
2009,06,29,02,20,12.20
2009,06,29,02,21,12.10
2009,06,29,02,22,12.10
2009,06,29,02,23,12.10
2009,06,29,02,24,12.10
2009,06,29,02,25,12.10
2009,06,29,02,26,12.10
2009,06,29,02,27,12.10
2009,06,29,02,28,12.10
2009,06,29,02,29,12.00
2009,06,29,02,30,12.00
2009,06,29,02,31,12.00
2009,06,29,02,32,12.00
2009,06,29,02,33,12.00
2009,06,29,02,34,12.00
2009,06,29,02,35,12.00
2009,06,29,02,36,12.00
2009,06,29,02,37,11.90
2009,06,29,02,38,11.90
2009,06,29,02,39,11.90
2009,06,29,02,40,11.90
2009,06,29,02,41,11.90
2009,06,29,02,42,11.90
2009,06,29,02,43,11.90
2009,06,29,02,44,11.90
2009,06,29,02,45,11.90
2009,06,29,02,46,11.80
2009,06,29,02,47,11.80
2009,06,29,02,48,11.80
2009,06,29,02,49,11.80
2009,06,29,02,50,11.80
2009,06,29,02,51,11.90
2009,06,29,02,52,11.90
2009,06,29,02,53,11.90
2009,06,29,02,54,11.90
2009,06,29,02,55,12.00
2009,06,29,02,56,12.00
2009,06,29,02,57,12.00
2009,06,29,02,58,12.00
2009,06,29,02,59,12.00
2009,06,29,03,00,12.00
2009,06,29,03,01,12.00
2009,06,29,03,02,12.00
2009,06,29,03,03,11.90
2009,06,29,03,04,11.90
2009,06,29,03,05,11.80
2009,06,29,03,06,11.80
2009,06,29,03,07,11.80
2009,06,29,03,08,11.80
2009,06,29,03,09,11.80
2009,06,29,03,10,11.70
2009,06,29,03,11,11.70
2009,06,29,03,12,11.60
2009,06,29,03,13,11.60
2009,06,29,03,14,11.60
2009,06,29,03,15,11.60
2009,06,29,03,16,11.50
2009,06,29,03,17,11.40
2009,06,29,03,18,11.40
2009,06,29,03,19,11.40
2009,06,29,03,20,11.40
2009,06,29,03,21,11.30
2009,06,29,03,22,11.20
2009,06,29,03,23,11.20
2009,06,29,03,24,11.10
2009,06,29,03,25,11.10
2009,06,29,03,26,11.10
2009,06,29,03,27,11.10
2009,06,29,03,28,11.10
2009,06,29,03,29,11.10
2009,06,29,03,30,11.10
2009,06,29,03,31,11.20
2009,06,29,03,32,11.20
2009,06,29,03,33,11.20
2009,06,29,03,34,11.20
2009,06,29,03,35,11.30
2009,06,29,03,36,11.30
2009,06,29,03,37,11.30
2009,06,29,03,38,11.30
2009,06,29,03,39,11.30
2009,06,29,03,40,11.30
2009,06,29,03,41,11.30
2009,06,29,03,42,11.30
2009,06,29,03,43,11.30
2009,06,29,03,44,11.30
2009,06,29,03,45,11.30
2009,06,29,03,46,11.30
2009,06,29,03,47,11.30
2009,06,29,03,48,11.30
2009,06,29,03,49,11.30
2009,06,29,03,50,11.20
2009,06,29,03,51,11.20
2009,06,29,03,52,11.20
2009,06,29,03,53,11.20
2009,06,29,03,54,11.10
2009,06,29,03,55,11.10
2009,06,29,03,56,11.10
2009,06,29,03,57,11.10
2009,06,29,03,58,11.10
2009,06,29,03,59,11.10
2009,06,29,04,00,11.10
2009,06,29,04,01,11.10
2009,06,29,04,02,11.10
2009,06,29,04,03,11.20
2009,06,29,04,05,11.20
2009,06,29,04,06,11.20
2009,06,29,04,07,11.20
2009,06,29,04,08,11.20
2009,06,29,04,09,11.20
2009,06,29,04,10,11.20
2009,06,29,04,11,11.20
2009,06,29,04,12,11.20
2009,06,29,04,13,11.20
2009,06,29,04,14,11.20
2009,06,29,04,15,11.10
2009,06,29,04,16,11.10
2009,06,29,04,17,11.10
2009,06,29,04,18,11.10
2009,06,29,04,19,11.10
2009,06,29,04,20,11.00
2009,06,29,04,21,10.90
2009,06,29,04,22,10.90
2009,06,29,04,23,10.90
2009,06,29,04,24,10.90
2009,06,29,04,25,10.90
2009,06,29,04,26,10.90
2009,06,29,04,27,10.90
2009,06,29,04,28,10.90
2009,06,29,04,29,10.90
2009,06,29,04,30,10.90
2009,06,29,04,31,10.90
2009,06,29,04,32,10.90
2009,06,29,04,33,10.90
2009,06,29,04,34,10.90
2009,06,29,04,35,10.90
2009,06,29,04,36,10.90
2009,06,29,04,37,10.90
2009,06,29,04,38,10.90
2009,06,29,04,39,10.90
2009,06,29,04,40,10.90
2009,06,29,04,41,10.90
2009,06,29,04,42,10.90
2009,06,29,04,43,10.80
2009,06,29,04,44,10.80
2009,06,29,04,45,10.80
2009,06,29,04,46,10.90
2009,06,29,04,47,10.90
2009,06,29,04,48,10.90
2009,06,29,04,49,10.90
2009,06,29,04,50,10.90
2009,06,29,04,51,10.90
2009,06,29,04,52,10.90
2009,06,29,04,53,10.90
2009,06,29,04,54,10.90
2009,06,29,04,55,10.90
2009,06,29,04,56,10.90
2009,06,29,04,57,10.90
2009,06,29,04,58,11.00
2009,06,29,04,59,11.10
2009,06,29,05,00,11.10
2009,06,29,05,01,11.10
2009,06,29,05,02,11.10
2009,06,29,05,03,11.10
2009,06,29,05,04,11.10
2009,06,29,05,05,11.10
2009,06,29,05,06,11.10
2009,06,29,05,07,11.10
2009,06,29,05,08,11.20
2009,06,29,05,09,11.20
2009,06,29,05,10,11.20
2009,06,29,05,11,11.10
2009,06,29,05,12,11.10
2009,06,29,05,13,11.10
2009,06,29,05,14,11.10
2009,06,29,05,15,11.10
2009,06,29,05,16,11.10
2009,06,29,05,17,11.10
2009,06,29,05,18,11.10
2009,06,29,05,19,11.10
2009,06,29,05,20,11.10
2009,06,29,05,21,11.10
2009,06,29,05,22,11.10
2009,06,29,05,23,10.90
2009,06,29,05,24,10.90
2009,06,29,05,25,10.90
2009,06,29,05,26,10.90
2009,06,29,05,27,10.90
2009,06,29,05,28,10.90
2009,06,29,05,29,10.90
2009,06,29,05,30,10.90
2009,06,29,05,31,10.90
2009,06,29,05,32,10.90
2009,06,29,05,33,10.90
2009,06,29,05,34,10.90
2009,06,29,05,35,10.90
2009,06,29,05,36,10.90
2009,06,29,05,37,10.90
2009,06,29,05,38,10.90
2009,06,29,05,39,11.00
2009,06,29,05,40,11.10
2009,06,29,05,41,11.10
2009,06,29,05,42,11.10
2009,06,29,05,43,11.10
2009,06,29,05,44,11.20
2009,06,29,05,45,11.20
2009,06,29,05,46,11.30
2009,06,29,05,47,11.30
2009,06,29,05,48,11.30
2009,06,29,05,49,11.30
2009,06,29,05,50,11.30
2009,06,29,05,51,11.30
2009,06,29,05,52,11.20
2009,06,29,05,53,11.20
2009,06,29,05,54,11.30
2009,06,29,05,55,11.30
2009,06,29,05,56,11.30
2009,06,29,05,57,11.30
2009,06,29,05,58,11.30
2009,06,29,05,59,11.30
2009,06,29,06,00,11.30
2009,06,29,06,01,11.30
2009,06,29,06,02,11.30
2009,06,29,06,03,11.40
2009,06,29,06,04,11.40
2009,06,29,06,05,11.40
2009,06,29,06,06,11.40
2009,06,29,06,07,11.40
2009,06,29,06,08,11.40
2009,06,29,06,09,11.40
2009,06,29,06,10,11.50
2009,06,29,06,11,11.60
2009,06,29,06,12,11.60
2009,06,29,06,13,11.60
2009,06,29,06,14,11.60
2009,06,29,06,15,11.60
2009,06,29,06,16,11.70
2009,06,29,06,17,11.70
2009,06,29,06,18,11.70
2009,06,29,06,19,11.70
2009,06,29,06,20,11.70
2009,06,29,06,21,11.70
2009,06,29,06,22,11.80
2009,06,29,06,23,11.80
2009,06,29,06,24,11.80
2009,06,29,06,25,11.80
2009,06,29,06,26,11.80
2009,06,29,06,27,11.80
2009,06,29,06,28,11.80
2009,06,29,06,29,11.80
2009,06,29,06,30,11.80
2009,06,29,06,31,11.80
2009,06,29,06,32,11.80
2009,06,29,06,33,11.80
2009,06,29,06,34,11.80
2009,06,29,06,35,11.80
2009,06,29,06,36,11.90
2009,06,29,06,37,11.90
2009,06,29,06,38,11.90
2009,06,29,06,39,11.90
2009,06,29,06,40,11.90
2009,06,29,06,41,11.90
2009,06,29,06,42,12.00
2009,06,29,06,43,12.00
2009,06,29,06,44,12.00
2009,06,29,06,45,12.00
2009,06,29,06,46,12.00
2009,06,29,06,47,12.10
2009,06,29,06,48,12.10
2009,06,29,06,49,12.10
2009,06,29,06,50,12.20
2009,06,29,06,51,12.20
2009,06,29,06,52,12.20
2009,06,29,06,53,12.20
2009,06,29,06,54,12.30
2009,06,29,06,55,12.30
2009,06,29,06,56,12.30
2009,06,29,06,57,12.30
2009,06,29,06,58,12.30
2009,06,29,06,59,12.30
2009,06,29,07,00,12.30
2009,06,29,07,01,12.30
2009,06,29,07,02,12.30
2009,06,29,07,03,12.30
2009,06,29,07,04,12.30
2009,06,29,07,05,12.40
2009,06,29,07,06,12.40
2009,06,29,07,07,12.40
2009,06,29,07,08,12.40
2009,06,29,07,09,12.40
2009,06,29,07,10,12.50
2009,06,29,07,11,12.50
2009,06,29,07,12,12.50
2009,06,29,07,13,12.50
2009,06,29,07,14,12.50
2009,06,29,07,15,12.50
2009,06,29,07,16,12.50
2009,06,29,07,17,12.50
2009,06,29,07,18,12.50
2009,06,29,07,19,12.60
2009,06,29,07,20,12.60
2009,06,29,07,21,12.60
2009,06,29,07,22,12.60
2009,06,29,07,23,12.70
2009,06,29,07,24,12.70
2009,06,29,07,25,12.70
2009,06,29,07,26,12.70
2009,06,29,07,27,12.80
2009,06,29,07,28,12.80
2009,06,29,07,29,12.80
2009,06,29,07,30,12.80
2009,06,29,07,31,12.80
2009,06,29,07,32,12.80
2009,06,29,07,33,12.80
2009,06,29,07,34,12.80
2009,06,29,07,35,12.80
2009,06,29,07,36,12.80
2009,06,29,07,37,12.80
2009,06,29,07,38,12.80
2009,06,29,07,39,12.80
2009,06,29,07,40,12.80
2009,06,29,07,41,12.80
2009,06,29,07,42,12.80
2009,06,29,07,43,12.80
2009,06,29,07,44,12.80
2009,06,29,07,45,12.80
2009,06,29,07,46,12.90
2009,06,29,07,47,12.90
2009,06,29,07,48,12.90
2009,06,29,07,49,12.90
2009,06,29,07,50,13.00
2009,06,29,07,51,13.00
2009,06,29,07,52,13.00
2009,06,29,07,53,13.00
2009,06,29,07,54,13.00
2009,06,29,07,55,13.00
2009,06,29,07,56,13.10
2009,06,29,07,57,13.10
2009,06,29,07,58,13.10
2009,06,29,07,59,13.10
2009,06,29,08,00,13.10
2009,06,29,08,01,13.00
2009,06,29,08,02,13.00
2009,06,29,08,03,13.10
2009,06,29,08,04,13.10
2009,06,29,08,05,13.10
2009,06,29,08,06,13.20
2009,06,29,08,07,13.20
2009,06,29,08,08,13.20
2009,06,29,08,09,13.30
2009,06,29,08,10,13.30
2009,06,29,08,11,13.30
2009,06,29,08,12,13.30
2009,06,29,08,13,13.30
2009,06,29,08,14,13.30
2009,06,29,08,15,13.30
2009,06,29,08,16,13.30
2009,06,29,08,17,13.30
2009,06,29,08,18,13.30
2009,06,29,08,19,13.30
2009,06,29,08,20,13.30
2009,06,29,08,21,13.40
2009,06,29,08,22,13.40
2009,06,29,08,23,13.40
2009,06,29,08,24,13.40
2009,06,29,08,25,13.40
2009,06,29,08,26,13.40
2009,06,29,08,27,13.40
2009,06,29,08,28,13.40
2009,06,29,08,29,13.40
2009,06,29,08,30,13.50
2009,06,29,08,31,13.50
2009,06,29,08,32,13.50
2009,06,29,08,33,13.50
2009,06,29,08,34,13.40
2009,06,29,08,35,13.40
2009,06,29,08,36,13.30
2009,06,29,08,37,13.30
2009,06,29,08,38,13.30
2009,06,29,08,39,13.30
2009,06,29,08,40,13.30
2009,06,29,08,41,13.30
2009,06,29,08,42,13.30
2009,06,29,08,43,13.30
2009,06,29,08,44,13.30
2009,06,29,08,45,13.30
2009,06,29,08,46,13.30
2009,06,29,08,47,13.40
2009,06,29,08,48,13.40
2009,06,29,08,49,13.40
2009,06,29,08,50,13.30
2009,06,29,08,51,13.30
2009,06,29,08,52,13.20
2009,06,29,08,53,13.20
2009,06,29,08,54,13.20
2009,06,29,08,55,13.20
2009,06,29,08,56,13.30
2009,06,29,08,57,13.30
2009,06,29,08,58,13.30
2009,06,29,08,59,13.30
2009,06,29,09,00,13.30
2009,06,29,09,01,13.30
2009,06,29,09,02,13.40
2009,06,29,09,03,13.40
2009,06,29,09,04,13.40
2009,06,29,09,05,13.40
2009,06,29,09,06,13.40
2009,06,29,09,07,13.40
2009,06,29,09,08,13.40
2009,06,29,09,09,13.40
2009,06,29,09,10,13.50
2009,06,29,09,11,13.50
2009,06,29,09,12,13.50
2009,06,29,09,13,13.50
2009,06,29,09,14,13.50
2009,06,29,09,15,13.60
2009,06,29,09,16,13.60
2009,06,29,09,17,13.60
2009,06,29,09,18,13.70
2009,06,29,09,19,13.70
2009,06,29,09,20,13.70
2009,06,29,09,21,13.80
2009,06,29,09,22,13.90
2009,06,29,09,23,13.90
2009,06,29,09,24,14.00
2009,06,29,09,25,14.00
2009,06,29,09,26,14.00
2009,06,29,09,27,14.00
2009,06,29,09,28,14.10
2009,06,29,09,29,14.10
2009,06,29,09,30,14.10
2009,06,29,09,31,14.10
2009,06,29,09,32,14.20
2009,06,29,09,33,14.20
2009,06,29,09,34,14.10
2009,06,29,09,35,14.00
2009,06,29,09,36,14.00
2009,06,29,09,37,14.00
2009,06,29,09,38,14.10
2009,06,29,09,39,14.10
2009,06,29,09,40,14.20
2009,06,29,09,41,14.20
2009,06,29,09,42,14.20
2009,06,29,09,43,14.20
2009,06,29,09,44,14.20
2009,06,29,09,45,14.20
2009,06,29,09,46,14.20
2009,06,29,09,47,14.20
2009,06,29,09,48,14.20
2009,06,29,09,49,14.30
2009,06,29,09,50,14.30
2009,06,29,09,51,14.20
2009,06,29,09,52,14.20
2009,06,29,09,53,14.20
2009,06,29,09,54,14.20
2009,06,29,09,55,14.20
2009,06,29,09,56,14.10
2009,06,29,09,57,14.10
2009,06,29,09,58,14.10
2009,06,29,09,59,14.10
2009,06,29,10,00,14.10
2009,06,29,10,01,14.20
2009,06,29,10,02,14.20
2009,06,29,10,03,14.30
2009,06,29,10,04,14.40
2009,06,29,10,05,14.40
2009,06,29,10,06,14.40
2009,06,29,10,07,14.50
2009,06,29,10,08,14.40
2009,06,29,10,09,14.40
2009,06,29,10,10,14.30
2009,06,29,10,11,14.30
2009,06,29,10,12,14.30
2009,06,29,10,13,14.30
2009,06,29,10,14,14.40
2009,06,29,10,15,14.40
2009,06,29,10,16,14.40
2009,06,29,10,17,14.40
2009,06,29,10,18,14.40
2009,06,29,10,19,14.50
2009,06,29,10,20,14.50
2009,06,29,10,21,14.50
2009,06,29,10,22,14.50
2009,06,29,10,23,14.50
2009,06,29,10,24,14.40
2009,06,29,10,25,14.40
2009,06,29,10,26,14.40
2009,06,29,10,27,14.40
2009,06,29,10,28,14.50
2009,06,29,10,29,14.50
2009,06,29,10,30,14.60
2009,06,29,10,31,14.60
2009,06,29,10,32,14.50
2009,06,29,10,33,14.50
2009,06,29,10,34,14.50
2009,06,29,10,35,14.50
2009,06,29,10,36,14.60
2009,06,29,10,37,14.60
2009,06,29,10,38,14.60
2009,06,29,10,39,14.60
2009,06,29,10,40,14.60
2009,06,29,10,41,14.60
2009,06,29,10,42,14.60
2009,06,29,10,43,14.50
2009,06,29,10,44,14.50
2009,06,29,10,45,14.50
2009,06,29,10,46,14.50
2009,06,29,10,47,14.50
2009,06,29,10,48,14.60
2009,06,29,10,49,14.60
2009,06,29,10,50,14.60
2009,06,29,10,51,14.60
2009,06,29,10,52,14.60
2009,06,29,10,53,14.80
2009,06,29,10,54,14.90
2009,06,29,10,55,14.90
2009,06,29,10,56,14.90
2009,06,29,10,57,14.90
2009,06,29,10,58,14.90
2009,06,29,10,59,14.90
2009,06,29,11,00,15.00
2009,06,29,11,01,15.00
2009,06,29,11,02,15.10
2009,06,29,11,03,15.10
2009,06,29,11,04,15.10
2009,06,29,11,05,14.90
2009,06,29,11,06,14.80
2009,06,29,11,07,14.80
2009,06,29,11,08,14.80
2009,06,29,11,09,14.80
2009,06,29,11,10,14.80
2009,06,29,11,11,14.90
2009,06,29,11,12,15.00
2009,06,29,11,13,15.10
2009,06,29,11,14,15.20
2009,06,29,11,15,15.30
2009,06,29,11,16,15.30
2009,06,29,11,17,15.30
2009,06,29,11,18,15.30
2009,06,29,11,19,15.10
2009,06,29,11,20,15.00
2009,06,29,11,21,14.90
2009,06,29,11,22,14.80
2009,06,29,11,23,14.80
2009,06,29,11,24,14.80
2009,06,29,11,25,14.90
2009,06,29,11,26,14.90
2009,06,29,11,27,14.90
2009,06,29,11,28,14.80
2009,06,29,11,29,14.80
2009,06,29,11,30,14.90
2009,06,29,11,31,14.90
2009,06,29,11,32,14.80
2009,06,29,11,33,14.80
2009,06,29,11,34,14.90
2009,06,29,11,35,14.90
2009,06,29,11,36,14.90
2009,06,29,11,37,14.90
2009,06,29,11,38,14.80
2009,06,29,11,39,14.90
2009,06,29,11,40,15.00
2009,06,29,11,41,15.10
2009,06,29,11,42,15.20
2009,06,29,11,43,15.20
2009,06,29,11,44,15.10
2009,06,29,11,45,15.10
2009,06,29,11,46,15.10
2009,06,29,11,47,15.10
2009,06,29,11,48,15.20
2009,06,29,11,49,15.30
2009,06,29,11,50,15.30
2009,06,29,11,51,15.50
2009,06,29,11,52,15.50
2009,06,29,11,53,15.50
2009,06,29,11,54,15.40
2009,06,29,11,55,15.30
2009,06,29,11,56,15.20
2009,06,29,11,57,15.20
2009,06,29,11,58,15.20
2009,06,29,11,59,15.20
2009,06,29,12,00,15.30
2009,06,29,12,01,15.40
2009,06,29,12,02,15.40
2009,06,29,12,03,15.50
2009,06,29,12,04,15.60
2009,06,29,12,05,15.60
2009,06,29,12,06,15.60
2009,06,29,12,07,15.50
2009,06,29,12,08,15.50
2009,06,29,12,09,15.40
2009,06,29,12,10,15.30
2009,06,29,12,11,15.30
2009,06,29,12,12,15.30
2009,06,29,12,13,15.30
2009,06,29,12,14,15.30
2009,06,29,12,15,15.40
2009,06,29,12,16,15.50
2009,06,29,12,17,15.50
2009,06,29,12,18,15.40
2009,06,29,12,19,15.40
2009,06,29,12,20,15.40
2009,06,29,12,21,15.40
2009,06,29,12,22,15.30
2009,06,29,12,23,15.30
2009,06,29,12,24,15.40
2009,06,29,12,25,15.40
2009,06,29,12,26,15.50
2009,06,29,12,27,15.50
2009,06,29,12,28,15.60
2009,06,29,12,29,15.70
2009,06,29,12,30,15.80
2009,06,29,12,31,15.80
2009,06,29,12,32,15.80
2009,06,29,12,33,15.80
2009,06,29,12,34,15.90
2009,06,29,12,35,16.10
2009,06,29,12,36,16.10
2009,06,29,12,37,16.10
2009,06,29,12,38,16.10
2009,06,29,12,39,16.10
2009,06,29,12,40,16.00
2009,06,29,12,41,16.10
2009,06,29,12,42,16.00
2009,06,29,12,43,15.90
2009,06,29,12,44,15.90
2009,06,29,12,45,15.90
2009,06,29,12,46,16.00
2009,06,29,12,47,16.10
2009,06,29,12,48,16.10
2009,06,29,12,49,16.20
2009,06,29,12,50,16.20
2009,06,29,12,51,16.20
2009,06,29,12,52,16.20
2009,06,29,12,53,16.20
2009,06,29,12,54,16.10
2009,06,29,12,55,16.10
2009,06,29,12,56,16.10
2009,06,29,12,57,16.20
2009,06,29,12,58,16.20
2009,06,29,12,59,16.20
2009,06,29,13,00,16.10
2009,06,29,13,01,16.10
2009,06,29,13,02,16.10
2009,06,29,13,03,16.10
2009,06,29,13,04,16.10
2009,06,29,13,05,16.20
2009,06,29,13,06,16.20
2009,06,29,13,07,16.30
2009,06,29,13,08,16.40
2009,06,29,13,09,16.50
2009,06,29,13,10,16.50
2009,06,29,13,11,16.40
2009,06,29,13,12,16.40
2009,06,29,13,13,16.30
2009,06,29,13,14,16.30
2009,06,29,13,15,16.20
2009,06,29,13,16,16.30
2009,06,29,13,17,16.30
2009,06,29,13,18,16.40
2009,06,29,13,19,16.40
2009,06,29,13,20,16.40
2009,06,29,13,21,16.40
2009,06,29,13,22,16.40
2009,06,29,13,23,16.30
2009,06,29,13,24,16.30
2009,06,29,13,25,16.20
2009,06,29,13,26,16.30
2009,06,29,13,27,16.30
2009,06,29,13,28,16.50
2009,06,29,13,29,16.70
2009,06,29,13,30,16.70
2009,06,29,13,31,16.80
2009,06,29,13,32,16.90
2009,06,29,13,33,17.00
2009,06,29,13,34,17.00
2009,06,29,13,35,17.00
2009,06,29,13,36,17.10
2009,06,29,13,37,17.10
2009,06,29,13,38,17.10
2009,06,29,13,39,17.10
2009,06,29,13,40,17.00
2009,06,29,13,41,16.90
2009,06,29,13,42,16.80
2009,06,29,13,43,16.70
2009,06,29,13,44,16.80
2009,06,29,13,45,16.80
2009,06,29,13,46,16.90
2009,06,29,13,47,17.10
2009,06,29,13,48,17.10
2009,06,29,13,49,17.10
2009,06,29,13,50,17.10
2009,06,29,13,51,17.00
2009,06,29,13,52,17.00
2009,06,29,13,53,17.00
2009,06,29,13,54,17.10
2009,06,29,13,55,17.30
2009,06,29,13,56,17.30
2009,06,29,13,57,17.30
2009,06,29,13,58,17.30
2009,06,29,13,59,17.30
2009,06,29,14,00,17.30
2009,06,29,14,01,17.20
2009,06,29,14,02,17.20
2009,06,29,14,03,17.20
2009,06,29,14,04,17.20
2009,06,29,14,05,17.30
2009,06,29,14,06,17.40
2009,06,29,14,07,17.40
2009,06,29,14,08,17.40
2009,06,29,14,09,17.40
2009,06,29,14,10,17.50
2009,06,29,14,11,17.70
2009,06,29,14,12,17.70
2009,06,29,14,13,17.80
2009,06,29,14,14,17.90
2009,06,29,14,15,17.80
2009,06,29,14,16,17.80
2009,06,29,14,17,17.80
2009,06,29,14,18,17.90
2009,06,29,14,19,17.90
2009,06,29,14,20,17.90
2009,06,29,14,21,17.90
2009,06,29,14,22,17.80
2009,06,29,14,23,17.70
2009,06,29,14,24,17.60
2009,06,29,14,25,17.60
2009,06,29,14,26,17.60
2009,06,29,14,27,17.60
2009,06,29,14,28,17.60
2009,06,29,14,29,17.60
2009,06,29,14,30,17.50
2009,06,29,14,31,17.60
2009,06,29,14,32,17.70
2009,06,29,14,33,17.80
2009,06,29,14,34,17.90
2009,06,29,14,35,17.90
2009,06,29,14,36,18.10
2009,06,29,14,37,18.10
2009,06,29,14,38,18.20
2009,06,29,14,39,18.20
2009,06,29,14,40,18.30
2009,06,29,14,41,18.40
2009,06,29,14,42,18.40
2009,06,29,14,43,18.50
2009,06,29,14,44,18.40
2009,06,29,14,45,18.30
2009,06,29,14,46,18.30
2009,06,29,14,47,18.30
2009,06,29,14,48,18.20
2009,06,29,14,49,18.30
2009,06,29,14,50,18.30
2009,06,29,14,51,18.30
2009,06,29,14,52,18.40
2009,06,29,14,53,18.30
2009,06,29,14,54,18.30
2009,06,29,14,55,18.30
2009,06,29,14,56,18.30
2009,06,29,14,57,18.40
2009,06,29,14,58,18.50
2009,06,29,14,59,18.60
2009,06,29,15,00,18.70
2009,06,29,15,01,18.80
2009,06,29,15,02,18.70
2009,06,29,15,03,18.60
2009,06,29,15,04,18.60
2009,06,29,15,05,18.40
2009,06,29,15,06,18.30
2009,06,29,15,07,18.30
2009,06,29,15,08,18.20
2009,06,29,15,09,18.20
2009,06,29,15,10,18.20
2009,06,29,15,11,18.20
2009,06,29,15,12,18.20
2009,06,29,15,13,18.30
2009,06,29,15,14,18.40
2009,06,29,15,15,18.50
2009,06,29,15,16,18.60
2009,06,29,15,17,18.60
2009,06,29,15,18,18.70
2009,06,29,15,19,18.70
2009,06,29,15,20,18.80
2009,06,29,15,21,18.80
2009,06,29,15,22,18.80
2009,06,29,15,23,18.80
2009,06,29,15,24,18.90
2009,06,29,15,25,19.00
2009,06,29,15,26,19.00
2009,06,29,15,27,18.90
2009,06,29,15,28,18.90
2009,06,29,15,29,18.70
2009,06,29,15,30,18.60
2009,06,29,15,31,18.60
2009,06,29,15,32,18.50
2009,06,29,15,33,18.50
2009,06,29,15,34,18.60
2009,06,29,15,35,18.60
2009,06,29,15,36,18.60
2009,06,29,15,37,18.50
2009,06,29,15,38,18.60
2009,06,29,15,39,18.60
2009,06,29,15,40,18.70
2009,06,29,15,41,18.80
2009,06,29,15,42,18.80
2009,06,29,15,43,18.70
2009,06,29,15,44,18.70
2009,06,29,15,45,18.60
2009,06,29,15,46,18.60
2009,06,29,15,47,18.70
2009,06,29,15,48,18.90
2009,06,29,15,49,19.00
2009,06,29,15,50,19.10
2009,06,29,15,51,19.20
2009,06,29,15,52,19.30
2009,06,29,15,53,19.40
2009,06,29,15,54,19.40
2009,06,29,15,55,19.30
2009,06,29,15,56,19.20
2009,06,29,15,57,19.10
2009,06,29,15,58,19.10
2009,06,29,15,59,19.10
2009,06,29,16,00,19.10
2009,06,29,16,01,19.00
2009,06,29,16,02,18.90
2009,06,29,16,03,18.90
2009,06,29,16,04,18.90
2009,06,29,16,05,19.00
2009,06,29,16,06,19.10
2009,06,29,16,07,19.10
2009,06,29,16,08,19.20
2009,06,29,16,09,19.20
2009,06,29,16,10,19.20
2009,06,29,16,11,19.20
2009,06,29,16,12,19.30
2009,06,29,16,13,19.40
2009,06,29,16,14,19.50
2009,06,29,16,15,19.60
2009,06,29,16,16,19.70
2009,06,29,16,17,19.70
2009,06,29,16,18,19.70
2009,06,29,16,19,19.70
2009,06,29,16,20,19.70
2009,06,29,16,21,19.60
2009,06,29,16,22,19.50
2009,06,29,16,23,19.50
2009,06,29,16,24,19.40
2009,06,29,16,25,19.40
2009,06,29,16,26,19.30
2009,06,29,16,27,19.30
2009,06,29,16,28,19.30
2009,06,29,16,29,19.30
2009,06,29,16,30,19.40
2009,06,29,16,31,19.40
2009,06,29,16,32,19.30
2009,06,29,16,33,19.40
2009,06,29,16,34,19.50
2009,06,29,16,35,19.60
2009,06,29,16,36,19.60
2009,06,29,16,37,19.50
2009,06,29,16,38,19.40
2009,06,29,16,39,19.50
2009,06,29,16,40,19.60
2009,06,29,16,41,19.70
2009,06,29,16,42,19.70
2009,06,29,16,43,19.80
2009,06,29,16,44,19.70
2009,06,29,16,45,19.70
2009,06,29,16,46,19.70
2009,06,29,16,47,19.60
2009,06,29,16,48,19.60
2009,06,29,16,49,19.50
2009,06,29,16,50,19.40
2009,06,29,16,51,19.40
2009,06,29,16,52,19.40
2009,06,29,16,53,19.60
2009,06,29,16,54,19.70
2009,06,29,16,55,19.80
2009,06,29,16,56,19.80
2009,06,29,16,57,19.80
2009,06,29,16,58,19.80
2009,06,29,16,59,19.80
2009,06,29,17,00,19.90
2009,06,29,17,01,20.00
2009,06,29,17,02,19.90
2009,06,29,17,03,19.90
2009,06,29,17,04,19.90
2009,06,29,17,05,20.00
2009,06,29,17,06,20.10
2009,06,29,17,07,20.10
2009,06,29,17,08,20.00
2009,06,29,17,09,19.90
2009,06,29,17,10,19.90
2009,06,29,17,11,19.90
2009,06,29,17,12,19.80
2009,06,29,17,13,19.70
2009,06,29,17,14,19.60
2009,06,29,17,15,19.60
2009,06,29,17,16,19.50
2009,06,29,17,17,19.50
2009,06,29,17,18,19.40
2009,06,29,17,19,19.40
2009,06,29,17,20,19.40